Regional Weather Roundup
Issued by NWS

Home | Current Version | Previous Version | Graphics & Text | Print | Product List | Glossary On
Versions: 1 2 3 4 5 6 7 8 9 10 11 12 13 14 15 16 17 18 19 20 21 22 23 24 25 26 27 28 29 30 31 32 33 34 35 36 37 38 39 40 41 42 43 44 45 46 47 48 49 50
000
ASUS43 KFSD 021210
RWRSD

WEATHER ROUNDUP FOR SOUTH DAKOTA
NATIONAL WEATHER SERVICE SIOUX FALLS SD
700 AM CDT TUE SEP 02 2014

NOTE: "FAIR" INDICATES FEW OR NO CLOUDS BELOW 12,000 FEET WITH NO
SIGNIFICANT WEATHER AND/OR OBSTRUCTIONS TO VISIBILITY.


SDZ001>005-009-010-012>017-021300-
NORTHWEST AND NORTH CENTRAL SOUTH DAKOTA

CITY           SKY/WX    TMP DP  RH WIND       PRES   REMARKS
BUFFALO          N/A     52  44  74 W13       29.84S
FAITH            N/A     48  44  86 S12       29.91S
MOBRIDGE       CLEAR     50  49  96 S7        29.86F
$$

SDZ012>016-024>037-041>051-057-063-072>074-021300-
SOUTHWEST AND SOUTH CENTRAL SOUTH DAKOTA

CITY           SKY/WX    TMP DP  RH WIND       PRES   REMARKS
RAPID CTY ARPT CLEAR     45  40  82 SW3       29.97S
PIERRE         CLEAR     53  51  93 SW9       29.91F
CUSTER         CLEAR     42  38  85 CALM      30.07F
ELLSWORTH AFB  CLEAR     50  41  69 SW8       29.96S
PHILIP         CLEAR     50  47  89 CALM      29.95S
PINE RIDGE     CLEAR     38  38 100 MISG      30.01F
WINNER         FAIR      53  48  83 SW5       29.96S
$$

SDZ004>011-016>023-039-040-021300-
NORTHEAST SOUTH DAKOTA

CITY           SKY/WX    TMP DP  RH WIND       PRES   REMARKS
ABERDEEN       CLEAR     46  46 100 SW5       29.88S
WATERTOWN      CLEAR     51  50  96 S3        29.91R
SISSETON         N/A     54  51  90 W3        29.85S
$$

SDZ017-020-022-023-036>040-048>070-021300-
SOUTHEAST SOUTH DAKOTA

CITY           SKY/WX    TMP DP  RH WIND       PRES   REMARKS
SIOUX FALLS    CLEAR     53  51  93 S6        29.92S
HURON          CLEAR     51  51 100 CALM      29.91S FOG
CHAMBERLAIN    CLEAR     51  49  94 CALM      29.95S
MITCHELL       CLEAR     55  53  93 W5        29.93R
YANKTON        CLEAR     55  54  94 W7        29.93R
$$

ABBREVIATIONS USED IN REMARKS
   TC - TEMPERATURE IN CELSIUS
  WCI - WIND CHILL INDEX
   HX - HEAT INDEX
  VSB - VISIBILITY



USA.gov is the U.S. government's official web portal to all federal, state and local government web resources and services.